www.pogodaiklimat.ru

Погода и климат >> Архив погоды >> Хорватия >> Осиек-Чепин


ПОГОДА в Осиек-Чепине

  • Прогноз погоды в Осиек-Чепине
  • Монитор погоды в Осиек-Чепине

АРХИВ ПОГОДЫ в Осиек-Чепине

Время (UTC), дата Ветер
(напр.,м/с)
 
Видим.   Явления Облачность Т
(С)
Тd
(С)
f
(%)
Тe
(С)
Тes
(С)
Комфортность P
(гПа)
Po
(гПа)
Тmin
(С)
Tmax
(С)
R
(мм)
R24
(мм)
S
(см)
21 12.07 ЮВ 1 10 км 9/3 1500 м
[Sc Ac As]
+17.9 +14.3 79 +19 +19 1012.0 1001.5
00 13.07 СВ 1 10 км 10/4 1500 м
[Sc Ac As]
+16.9 +14.8 87 +18 +18 1011.1 1000.6
03 13.07 В 1 10 км 10/8 1000 м
[Sc As op]
+16.4 +14.9 91 +17 +17 1010.5 1000.0
06 13.07 З 1 10 км 8/5 1500 м
[Sc Ac trans Ci fib]
+17.6 +15.2 86 +19 +21 1010.3 999.8 +15.9
09 13.07 СЗ 1 10 км 9/4 1500 м
[Sc Ac und]
+23.0 +15.2 61 +27 +32 душно 1009.9 999.6
12 13.07 СЗ 2 10 км 9/6 1000 м
[Cu Sc As op]
+21.6 +13.9 62 +24 +27 комфорт 1010.1 999.8
15 13.07 ЮЗ 2 10 км слаб. дождь {гроза} 10/4 1000 м
[Sc As op]
+17.0 +16.0 94 +17 +18 1010.7 1000.2
18 13.07 СЗ 1 10 км {гроза, дождь} 8/3 1000 м
[Sc Ac As]
+17.6 +16.3 92 +19 +19 1010.2 999.7 +23.6 3
21 13.07 З 2 10 км 9/9 1000 м
[Sc]
+16.6 +15.6 94 +17 +17 1011.1 1000.6
00 14.07 З 3 10 км 8/8 1000 м
[Sc]
+15.8 +14.1 90 +15 +15 1010.6 1000.1
03 14.07 З 2 10 км 8/8 1000 м
[Sc]
+15.1 +14.0 93 +15 +15 1011.0 1000.3
06 14.07 СЗ 3 10 км 8/8 1000 м
[Sc]
+17.0 +14.4 85 +17 +18 1010.3 999.8 +15.0 0.1
09 14.07 СЗ 3 10 км 8/8 1000 м
[Cu Sc]
+20.2 +14.4 69 +23 +25 комфорт 1010.5 1000.1
12 14.07 СЗ 3 10 км 6/6 1000 м
[Cu Sc]
+23.6 +14.1 55 +26 +32 жарко 1010.0 999.7
15 14.07 С 3 10 км 6/4 1000 м
[Cu med, cong Ac trans]
+24.0 +14.9 57 +27 +29 жарко 1009.4 999.2
18 14.07 ЮЗ 2 10 км {дождь} 3/3 1000 м
[Sc Ac trans]
+20.2 +17.7 86 +24 +24 комфорт 1010.0 999.6 +24.4 0.4
21 14.07 СВ 1 10 км 3/1 1000 м
[Sc Ac trans]
+16.8 +15.5 92 +18 +18 1011.4 1000.9
00 15.07 СЗ 1 10 км ясно +14.2 +13.3 94 +14 +14 1011.5 1000.9
03 15.07 СЗ 2 10 км ясно +12.4 +11.7 95 +11 +11 1011.7 1001.0
06 15.07 С 2 10 км ясно +16.4 +14.7 90 +16 +21 1011.7 1001.2 +12.2
09 15.07 В 2 10 км 3/3 1000 м
[Cu hum]
+21.5 +10.4 49 +23 +34 комфорт 1012.1 1001.7
12 15.07 С 1 10 км 8/8 1000 м
[Cu med, cong]
+23.3 +10.7 45 +25 +29 комфорт 1011.9 1001.6
15 15.07 В 2 10 км 8/5 1000 м
[Cu med, cong Cs]
+24.9 +9.2 37 +26 +29 жарко 1011.3 1001.1
18 15.07 СЗ 1 10 км 6/0
[Ac trans Ci]
+21.8 +12.2 54 +24 +24 комфорт 1011.4 1001.1 +25.5
21 15.07 СЗ 1 10 км 8/0
[Ac As]
+16.6 +15.0 90 +17 +17 1012.6 1002.1
00 16.07 СЗ 1 10 км 5/0
[Ci sp]
+14.2 +12.6 90 +14 +14 1012.9 1002.3
03 16.07 СЗ 1 10 км 3/1 600 м
[Sc Cs]
+13.0 +11.9 93 +13 +13 1012.3 1001.6
06 16.07 СЗ 1 10 км ясно +17.2 +13.9 81 +18 +24 1012.6 1002.1 +12.8
09 16.07 СЗ 1 10 км ясно +23.3 +10.9 46 +26 +44 жарко 1012.5 1002.2
12 16.07 С 2 10 км 4/4 1000 м
[Cu hum]
+25.5 +8.6 34 +26 +36 жарко 1012.2 1002.0
15 16.07 Ю 1 10 км 3/3 1000 м
[Cu hum]
+27.3 +8.3 30 +27 +33 жарко 1011.0 1000.8
18 16.07 СВ 1 10 км ясно +24.7 +7.9 34 +25 +25 комфорт 1011.1 1000.8 +27.5
21 16.07 З 1 10 км ясно +16.5 +13.2 81 +17 +17 1012.4 1001.9
00 17.07 ЮЗ 1 10 км 3/0
[Ac trans]
+15.3 +13.1 87 +16 +16 1012.7 1002.1
03 17.07 СЗ 1 10 км 3/0
[Ac trans]
+14.2 +12.3 88 +15 +15 1013.0 1002.4
06 17.07 СЗ 2 10 км 3/0
[Ac trans]
+19.7 +12.6 64 +22 +26 комфорт 1013.2 1002.8 +13.5
09 17.07 С 2 10 км ясно +25.0 +11.1 42 +26 +42 жарко 1013.3 1003.0
12 17.07 СЗ 3 10 км 3/3 1000 м
[Cu hum]
+27.4 +11.2 36 +28 +38 жарко 1012.1 1001.9
15 17.07 З 3 10 км 3/3 1000 м
[Cu hum]
+27.9 +9.7 32 +28 +32 жарко 1011.2 1001.1
18 17.07 СЗ 1 10 км 3/0
[Ci fib]
+25.2 +14.5 51 +28 +28 жарко 1010.7 1000.5 +28.1
21 17.07 З 1 10 км 3/0
[Ci fib]
+18.8 +16.6 87 +21 +21 комфорт 1011.4 1001.0
00 18.07 С 1 10 км 3/0
[Cs]
+16.4 +15.4 94 +17 +17 1011.7 1001.2
03 18.07 З 1 10 км ясно +14.6 +13.6 94 +15 +15 1011.9 1001.3
06 18.07 В 1 10 км 4/0
[Ac trans]
+19.1 +15.8 81 +22 +26 комфорт 1011.7 1001.3 +14.1
09 18.07 Ю 2 10 км 5/0
[Ac trans]
+26.0 +12.4 43 +28 +39 жарко 1011.9 1001.7
12 18.07 ЮЗ 2 10 км 8/5 1000 м
[Cu med, cong Ci sp]
+27.8 +12.4 39 +29 +37 жарко 1011.7 1001.6
15 18.07 С 2 10 км 6/3 1000 м
[Cu Sc Ac As]
+28.0 +14.1 43 +30 +33 жарко 1011.2 1001.1
18 18.07 СВ 1 10 км 8/4 1000 м
[Sc Ci fib]
+23.9 +14.6 56 +27 +27 жарко 1012.3 1002.0 +28.9
21 18.07 ЮЗ 2 10 км гроза, ливневой дождь 8/8 600 м
[Cb cap]
+20.4 +16.7 79 +24 +24 комфорт 1014.2 1003.8
00 19.07 ЮВ 2 10 км 9/4 600 м
[Sc As trans]
+17.5 +16.5 94 +18 +18 1014.7 1004.2
03 19.07 ЮВ 1 2000 м дымка 3/0
[As trans]
+16.4 +15.4 94 +17 +17 1015.0 1004.4
06 19.07 З 1 8000 м дымка 1/0
[As trans]
+18.6 +16.9 90 +21 +26 комфорт 1015.8 1005.3 +15.6
09 19.07 Ю 1 15 км 3/3 1000 м
[Cu hum]
+24.4 +16.6 62 +28 +41 душно 1016.3 1006.0
12 19.07 ЮЗ 1 15 км 6/3 1000 м
[Cu med, cong Ci sp]
+27.6 +15.2 47 +30 +43 жарко 1015.7 1005.5
15 19.07 Ю 2 15 км 3/3 600 м
[Cu med, cong Ci sp]
+28.8 +11.4 34 +29 +34 жарко 1014.5 1004.4

 

Местоположение метеостанции Осиек-Чепин (Хорватия): широта 45.50 долгота 18.57 высота над уровнем моря 90 м.

В архиве по умолчанию представлена погода в Осиек-Чепине за последнюю неделю. Архивные данные за месяц целиком и за предыдущие месяцы, начиная с января 2011 года, Вы можете получить, выбрав интересующий диапазон дат из раскрывающегося списка и нажав кнопку "Ввод!".


*Определитесь, кто Вы:
робот инопланетянин человек

Внимание! Время в таблицах - всемирное. Для получения местного времени необходимо прибавить поправку, которая равна 1 ч.

Смотрите также архив погоды в соседних городах и на ближайших метеорологических станциях:

Погода в Осиек аэропорту (Хорватия) (20 км)
Погода в Градиште (Хорватия) (40 км)
Погода в Сомборе (Сербия) (54 км)
Погода в Славонски-Броде (Хорватия) (58 км)
Погода в Пече (Венгрия) (62 км)
Погода в Градачаце (Босния и Герцеговина) (70 км)
Погода в Байе (Венгрия) (83 км)
Погода в Сремска-Митровице (Сербия) (89 км)
Погода в Нови-Саде (Сербия) (102 км)
Погода в Даруваре (Хорватия) (105 км)

Пояснения к столбцам:

Ветер - указаны скорость ветра в м/с - средняя за 10 мин, порывы в срок и между сроками (в фигурных скобках) и направление, откуда дует ветер: С - северный, СВ - северо-восточный, В - восточный, ЮВ - юго-восточный, Ю - южный, ЮЗ - юго-западный, З - западный, СЗ - северо-западный.
Видимость - горизонтальная дальность видимости в метрах или километрах. При видимости от 1 до 10 км при отсутствии осадков обычно наблюдается дымка, при ухудшении видимости до 1 км и менее - туман. В сухую погоду видимость может ухудшаться дымом, пылью или мглою.
Явления - указаны атмосферные явления, наблюдавшиеся в срок или в последний час перед сроком; фигурными скобками обозначены явления, наблюдавшиеся между сроками (за 1-3 часа до срока); квадратными скобками обозначены град или гололедные отложения с указанием их диаметра в мм.
Облачность - указаны через наклонную черту общая и нижняя облачность в баллах и высота нижней границы облаков в метрах; квадратными скобками обозначены формы облаков: Ci - перистые, Cs - перисто-слоистые, Cc - перисто-кучевые, Ac - высококучевые, As - высокослоистые, Sc - слоисто-кучевые, Ns - слоисто-дождевые, Cu - кучевые, Cb - кучево-дождевые. Подробнее классификацию облаков см. в Атласе облаков (PDF).
T - Температура воздуха - температура, измеренная на высоте 2 м над землей.
Td - Температура точки росы - температура, при понижении до которой содержащийся в воздухе водяной пар достигнет насыщения.
f - Относительная влажность воздуха - влажноcть воздуха, измеренная на высоте 2 м над землей.
Te - Эффективная температура - температура, которую ощущает одетый по сезону человек в тени. Характеристика душности погоды. При расчете учитывается влияние влажности воздуха и скорости ветра на теплоощущения человека.
Tes - Эффективная температура на солнце - температура, которую ощущает человек, с поправкой на солнечный нагрев. Характеристика знойности погоды. Зависит от высоты солнца над горизонтом, облачности и скорости ветра. Ночью, в пасмурную погоду, а также при ветре 12 м/с и более поправка равна нулю.
P - Атмосферное давление - приведенное к уровню моря атмосферное давление.
Po - Атмосферное давление - измеренное на уровне метеостанции атмосферное давление.
Tmin - Минимальная температура - минимум температуры воздуха на высоте 2 м над землей.
Tmax - Максимальная температура - максимум температуры воздуха на высоте 2 м над землей.
R - Количество осадков - Количество выпавших осадков за период времени, мм. При наведении курсора мыши на число - период времени, за который выпало указанное количество осадков.
R24 - Количество осадков - Количество выпавших осадков за 24 часа, мм.
S - Снежный покров - Высота снежного покрова, см. При наведении курсора мыши на число - состояние снежного покрова и степень покрытия местности в баллах.